Stations météo

Publicité
Beauvais, France (7055): Température de l'air & dewpoint: 21.04.2018 02:00:00 - 27.04.2018 02:00:00 (CEST)Beauvais, France (7055): Température de l'air 5cm: 21.04.2018 02:00:00 - 27.04.2018 02:00:00 (CEST)Beauvais, France (7055): Température de l'air -20cm & Température de l'air -100cm: 21.04.2018 02:00:00 - 27.04.2018 02:00:00 (CEST)Beauvais, France (7055): Vitesse du vent & gusts: 21.04.2018 02:00:00 - 27.04.2018 02:00:00 (CEST)Beauvais, France (7055): Direction du vent: 21.04.2018 02:00:00 - 27.04.2018 02:00:00 (CEST)Beauvais, France (7055): reduced air pressure: 21.04.2018 02:00:00 - 27.04.2018 02:00:00 (CEST)Beauvais, France (7055): visibility: 21.04.2018 02:00:00 - 27.04.2018 02:00:00 (CEST)Beauvais, France (7055): Ensoleillement: 21.04.2018 02:00:00 - 27.04.2018 02:00:00 (CEST)Beauvais, France (7055): Quantités de précipitations: 21.04.2018 02:00:00 - 27.04.2018 02:00:00 (CEST)
Date & Time tt [°C] td [°C] tt 5cm [°C] tt -20cm [°C] tt -100cm [°C] ff [km/h] ff [knt] fx [km/h] fx [knt] dd ppp [hPa] vv [km] sd [min] rr [mm]
27.04.2018 02:00:00 5,5 3,5 5,0 13,3 11,9 6 4 8 4 E 1016,9 24 0 0,0
27.04.2018 01:00:00 6,1 4,1 5,0 13,3 11,9 3 2 5 3 SE 1017,7 18 0 0,0
27.04.2018 00:00:00 7,4 4,9 7,5 13,3 11,9 0 0 9 5 N 1017,9 20 0 0,0
26.04.2018 23:00:00 8,2 4,4 6,8 13,2 11,8 0 0 10 5 N 1018,4 30 0 0,0
26.04.2018 22:00:00 9,0 4,2 7,1 13,3 11,9 6 3 11 6 NNW 1018,6 32 0 0,0
26.04.2018 21:00:00 10,0 4,6 9,7 13,2 11,9 7 4 14 8 NW 1018,4 37 0 0,0
26.04.2018 20:00:00 13,6 2,8 14,7 13,2 11,9 12 7 22 12 W 1018,4 37 0 0,0
26.04.2018 19:00:00 14,4 2,3 16,8 13,2 11,9 12 6 27 14 W 1018,4 38 25 0,0
26.04.2018 18:00:00 14,2 3,0 18,2 13,2 11,9 15 8 30 16 NW 1018,8 20 25 0,0
26.04.2018 17:00:00 16,1 3,2 21,8 13,1 11,8 14 7 37 20 W 1019,2 52 47 0,0
26.04.2018 16:00:00 15,8 0,0 26,2 13,1 11,8 22 12 38 21 WSW 1019,6 27 53 0,0
26.04.2018 15:00:00 14,7 1,6 23,4 13,2 11,8 23 12 37 20 W 1020,1 31 40 0,0
26.04.2018 14:00:00 14,0 2,2 20,9 13,2 11,8 23 13 38 20 WSW 1020,1 28 34 0,0
26.04.2018 13:00:00 14,0 3,7 18,7 13,3 11,9 21 12 37 20 SW 1020,2 18 37 0,0
26.04.2018 12:00:00 13,2 4,3 17,4 13,3 11,9 22 12 34 19 WSW 1020,7 19 19 0,0
26.04.2018 11:00:00 11,7 3,7 14,7 13,3 11,8 18 10 39 21 W 1020,7 19 37 0,0
26.04.2018 10:00:00 10,5 5,3 12,0 13,3 11,8 22 12 38 21 WSW 1020,5 10 48 0,0
26.04.2018 09:00:00 9,4 5,9 8,9 13,4 11,8 21 11 31 17 WSW 1020,2 12 60 0,0
26.04.2018 08:00:00 7,5 5,3 7,0 13,4 11,8 16 9 27 14 WSW 1019,8 12 39 0,0
26.04.2018 07:00:00 6,3 4,8 6,8 13,5 11,9 14 7 21 12 WSW 1019,7 20 0 0,0
26.04.2018 06:00:00 6,2 4,7 6,5 13,5 11,8 14 8 21 12 WSW 1019,6 20 0 0,0
26.04.2018 05:00:00 6,2 4,4 6,8 13,5 11,8 10 6 20 11 W 1019,5 20 0 0,0
26.04.2018 04:00:00 6,8 4,8 7,3 13,5 11,8 13 7 24 13 WSW 1019,2 28 0 0,0
26.04.2018 03:00:00 8,0 4,9 8,2 13,5 11,8 15 8 27 15 WSW 1019,0 10 0 0,0
26.04.2018 02:00:00 8,1 4,7 8,3 13,5 11,8 14 8 23 12 WSW 1018,9 32 0 0,0
26.04.2018 01:00:00 8,5 4,7 8,4 13,6 11,8 13 7 24 13 WSW 1018,6 32 0 0,0
26.04.2018 00:00:00 8,9 4,3 8,9 13,5 11,8 13 7 24 13 W 1018,1 35 0 0,0
25.04.2018 23:00:00 9,9 3,6 9,5 13,6 11,8 18 10 27 15 W 1018,1 37 0 0,0
25.04.2018 22:00:00 10,3 4,0 10,2 13,5 11,8 14 8 32 17 W 1017,8 38 0 0,0
25.04.2018 21:00:00 11,4 2,9 11,3 13,5 11,8 16 9 40 21 W 1016,8 40 7 0,0
25.04.2018 20:00:00 13,6 2,8 13,2 13,5 11,8 31 17 45 24 W 1016,0 10 56 0,0
25.04.2018 19:00:00 14,8 4,2 15,9 13,5 11,8 32 17 50 27 W 1015,9 33 31 0,0
25.04.2018 18:00:00 14,5 4,8 16,5 13,5 11,8 26 14 42 23 W 1015,8 27 3 0,0
25.04.2018 17:00:00 15,6 3,7 21,2 13,5 11,8 29 16 45 25 WSW 1015,8 27 33 0,0
25.04.2018 16:00:00 14,8 5,0 20,7 13,5 11,8 29 15 50 27 WNW 1016,0 20 32 0,0
25.04.2018 15:00:00 14,2 6,0 19,5 13,5 11,8 27 14 42 23 WNW 1016,1 22 31 0,0
25.04.2018 14:00:00 14,7 8,0 18,6 13,5 11,7 22 12 38 20 W 1016,1 20 7 0,0
25.04.2018 13:00:00 14,7 7,0 18,9 13,5 11,7 18 10 37 20 W 1015,7 22 29 0,0
25.04.2018 12:00:00 13,6 7,4 17,0 13,5 11,7 19 11 32 17 W 1016,0 30 26 0,0
25.04.2018 11:00:00 12,8 8,1 15,7 13,5 11,7 18 10 30 16 WNW 1015,8 32 45 0,0
25.04.2018 10:00:00 12,2 9,4 13,4 13,6 11,7 20 11 35 19 W 1015,2 19 42 0,0
25.04.2018 09:00:00 11,5 9,9 12,6 13,6 11,7 21 11 31 17 WNW 1014,7 20 4 0,6
25.04.2018 08:00:00 12,8 9,8 12,4 13,6 11,7 19 10 31 17 W 1013,7 27 17 0,0
25.04.2018 07:00:00 12,6 10,0 12,3 13,6 11,7 17 9 27 15 WSW 1013,2 27 0 0,0
25.04.2018 06:00:00 12,8 10,0 12,2 13,6 11,7 18 10 30 16 WSW 1012,9 21 0 0,0
25.04.2018 05:00:00 12,3 10,5 11,9 13,6 11,7 8 4 19 11 WSW 1012,8 15 0 0,0
25.04.2018 04:00:00 12,5 10,6 11,2 13,6 11,7 10 5 15 8 W 1012,7 14 0 0,0
25.04.2018 03:00:00 11,7 10,3 8,5 13,7 11,7 10 6 13 7 WSW 1012,9 16 0 0,0
25.04.2018 02:00:00 9,8 8,6 7,7 13,7 11,7 8 5 9 5 SW 1013,0 11 0 0,0
25.04.2018 01:00:00 9,8 8,4 7,7 13,6 11,7 6 4 8 5 SSW 1013,3 11 0 0,0
25.04.2018 00:00:00 11,1 9,0 10,2 13,6 11,7 0 0 19 11 N 1013,5 5 0 0,0
24.04.2018 23:00:00 14,7 10,3 12,8 13,6 11,7 13 7 21 12 WNW 1014,1 11 0 0,0
24.04.2018 22:00:00 14,4 9,8 12,2 13,6 11,7 8 5 15 8 SW 1013,9 13 0 0,0
24.04.2018 21:00:00 15,8 9,0 13,9 13,5 11,7 11 6 22 12 SW 1013,8 17 0 0,0
24.04.2018 20:00:00 17,9 8,7 16,3 13,5 11,7 15 8 31 17 SW 1013,6 17 39 0,0
24.04.2018 19:00:00 18,8 9,6 18,8 13,4 11,6 21 11 31 17 SSW 1014,2 17 38 0,0
24.04.2018 18:00:00 19,2 9,7 22,0 13,4 11,6 22 12 31 17 SSW 1014,9 17 55 0,0
24.04.2018 17:00:00 18,9 10,5 23,8 13,4 11,6 19 11 33 18 S 1015,8 18 50 0,0
24.04.2018 16:00:00 19,0 9,2 25,0 13,4 11,6 19 10 31 17 SSW 1016,8 17 21 0,0
24.04.2018 15:00:00 18,4 10,7 27,1 13,4 11,6 14 8 26 14 S 1017,6 15 44 0,0
24.04.2018 14:00:00 17,2 10,6 27,6 13,4 11,6 12 7 29 15 SSW 1018,3 19 39 0,0
24.04.2018 13:00:00 16,2 9,6 24,2 13,5 11,6 15 8 28 15 SSW 1019,1 18 56 0,0
24.04.2018 12:00:00 14,7 8,9 19,7 13,5 11,6 16 9 24 13 SW 1019,7 19 46 0,0
24.04.2018 11:00:00 13,0 8,7 18,0 13,5 11,6 17 9 29 16 W 1020,0 24 32 0,0
24.04.2018 10:00:00 12,6 8,3 13,0 13,6 11,6 13 7 22 12 WSW 1020,0 19 60 0,0
24.04.2018 09:00:00 10,3 6,6 9,6 13,6 11,6 14 8 24 13 SSW 1019,8 18 60 0,0
24.04.2018 08:00:00 8,1 6,2 7,4 13,7 11,6 4 2 16 9 SW 1019,8 19 35 0,0
24.04.2018 07:00:00 7,1 5,2 6,9 13,7 11,6 11 6 17 9 SW 1019,4 20 0 0,0
24.04.2018 06:00:00 7,9 5,5 7,8 13,8 11,6 13 7 20 11 WSW 1019,6 18 0 0,0
24.04.2018 05:00:00 7,5 5,3 7,9 13,8 11,5 11 6 18 10 WSW 1020,0 20 0 0,0
24.04.2018 04:00:00 8,1 5,7 5,9 13,8 11,5 13 7 20 11 WSW 1019,8 19 0 0,0
24.04.2018 03:00:00 6,8 4,8 5,9 13,8 11,5 9 5 13 7 WSW 1020,1 17 0 0,0
24.04.2018 02:00:00 7,2 5,5 5,0 13,9 11,5 8 4 10 5 SSW 1020,4 19 0 0,0
24.04.2018 01:00:00 7,7 5,5 5,7 13,8 11,5 6 3 12 7 W 1020,9 19 0 0,0
24.04.2018 00:00:00 8,3 5,8 7,2 13,9 11,5 8 4 14 8 W 1020,8 20 0 0,0
23.04.2018 23:00:00 9,1 6,4 7,7 13,8 11,5 11 6 14 8 WNW 1020,7 20 0 0,0
23.04.2018 22:00:00 9,9 6,6 8,9 13,8 11,5 8 4 14 8 WNW 1020,3 20 0 0,0
23.04.2018 21:00:00 10,3 6,6 11,6 13,8 11,5 11 6 18 10 NW 1019,8 20 0 0,0
23.04.2018 20:00:00 12,8 6,8 14,6 13,7 11,5 16 8 29 15 WNW 1019,5 25 23 0,0
23.04.2018 19:00:00 14,5 7,3 17,4 13,7 11,5 19 10 33 18 WNW 1019,5 23 45 0,0
23.04.2018 18:00:00 15,3 7,6 20,6 13,7 11,5 20 11 35 19 WNW 1019,2 18 43 0,0
23.04.2018 17:00:00 16,3 7,8 23,5 13,7 11,4 18 10 33 18 W 1019,3 20 39 -
23.04.2018 16:00:00 17,3 8,2 23,6 13,7 11,4 20 11 31 17 W 1019,0 17 25 0,0
23.04.2018 15:00:00 17,2 7,8 27,6 13,7 11,4 18 10 28 15 WSW 1019,0 19 46 0,0
23.04.2018 14:00:00 16,8 7,7 26,0 13,7 11,4 13 7 28 15 W 1019,2 19 42 0,0
23.04.2018 13:00:00 16,1 7,0 22,2 13,7 11,4 18 10 32 18 W 1019,4 28 44 0,0
23.04.2018 12:00:00 14,6 6,9 23,0 13,8 11,4 13 7 31 17 W 1019,5 20 52 0,0
23.04.2018 11:00:00 14,1 7,4 19,2 13,8 11,4 10 5 25 14 W 1019,2 18 60 0,0
23.04.2018 10:00:00 12,8 8,3 14,1 13,8 11,3 14 8 21 11 W 1019,0 29 42 0,0
23.04.2018 09:00:00 11,5 9,1 12,3 13,9 11,3 13 7 19 11 WNW 1018,4 20 32 0,0
23.04.2018 08:00:00 10,8 9,1 8,3 13,9 11,3 8 5 18 10 W 1017,7 19 22 0,0
23.04.2018 07:00:00 9,1 7,9 6,5 13,9 11,3 8 5 16 9 W 1017,3 30 0 0,0
23.04.2018 06:00:00 9,1 6,4 7,6 13,9 11,3 3 2 11 6 WSW 1016,8 41 0 0,0
23.04.2018 05:00:00 8,8 6,1 7,5 13,9 11,3 5 3 9 5 SW 1016,6 42 0 0,0
23.04.2018 04:00:00 9,8 6,1 8,0 13,9 11,3 9 5 12 7 W 1016,2 43 0 0,0
23.04.2018 03:00:00 10,1 7,9 9,6 13,9 11,3 4 2 10 6 WNW 1015,7 19 0 0,0
23.04.2018 02:00:00 11,6 9,2 12,5 13,9 11,3 11 6 21 12 WNW 1015,8 16 0 0,0
23.04.2018 01:00:00 13,8 12,4 12,2 13,9 11,3 16 9 22 12 WNW 1015,0 12 0 0,0
23.04.2018 00:00:00 13,2 12,1 12,1 13,8 11,3 5 3 7 4 W 1014,2 7 0 0,0
22.04.2018 23:00:00 14,7 13,1 13,4 13,8 11,3 3 2 8 4 E 1013,9 11 0 0,0
22.04.2018 22:00:00 15,4 13,6 13,6 13,7 11,2 5 3 16 8 WNW 1013,3 10 0 0,0
22.04.2018 21:00:00 16,9 14,2 16,9 13,7 11,2 14 8 53 28 NNW 1012,4 16 0 0,0
22.04.2018 20:00:00 22,5 11,9 19,3 13,6 11,2 19 11 33 18 WSW 1011,4 16 2 0,0
22.04.2018 19:00:00 23,5 11,2 21,4 13,6 11,2 22 12 38 21 SW 1011,2 16 33 0,0
22.04.2018 18:00:00 24,8 11,7 24,0 13,5 11,1 24 13 40 22 SW 1010,8 13 41 0,0
22.04.2018 17:00:00 25,5 10,5 28,8 13,5 11,1 24 13 41 22 SW 1010,5 17 60 0,0
22.04.2018 16:00:00 25,9 11,3 28,7 13,4 11,1 23 13 37 20 WSW 1011,1 19 50 0,0
22.04.2018 15:00:00 25,1 11,6 30,0 13,4 11,1 21 11 36 19 SW 1011,3 20 48 0,0
22.04.2018 14:00:00 24,4 12,7 31,5 13,4 11,1 18 10 34 18 SW 1011,6 19 60 0,0
22.04.2018 13:00:00 23,4 14,1 27,8 13,4 11,1 17 9 31 17 SSW 1011,6 19 55 0,0
22.04.2018 12:00:00 22,7 14,3 25,8 13,5 11,1 13 7 25 14 SSW 1012,1 20 47 0,0
22.04.2018 11:00:00 21,6 14,3 22,4 13,4 11,1 8 4 13 7 S 1012,0 13 56 0,0
22.04.2018 10:00:00 19,3 13,7 17,7 13,5 11,1 6 3 9 5 SSE 1012,2 7 60 0,0
22.04.2018 09:00:00 16,9 13,0 12,6 13,5 11,1 0 0 6 3 N 1012,6 8 60 0,0
22.04.2018 08:00:00 12,3 11,2 10,5 13,5 11,1 4 2 9 5 SSW 1012,6 5 31 0,0
22.04.2018 07:00:00 11,6 10,0 10,6 13,6 11,0 2 1 11 6 E 1012,8 5 0 0,0
22.04.2018 06:00:00 13,5 10,7 11,8 13,5 11,0 3 2 16 8 NNE 1013,2 8 0 0,0
22.04.2018 05:00:00 13,9 11,4 11,8 13,6 11,0 11 6 16 9 N 1013,8 8 0 0,0
22.04.2018 04:00:00 12,4 10,6 10,1 13,6 11,0 9 5 25 13 NNW 1014,3 7 0 0,0
22.04.2018 03:00:00 11,2 9,3 10,1 13,6 11,0 0 0 6 3 N 1014,7 8 0 0,0
22.04.2018 02:00:00 11,3 9,4 10,6 13,5 11,0 5 3 9 5 NE 1015,4 6 0 0,0
22.04.2018 01:00:00 12,1 10,0 10,4 13,5 11,0 3 2 5 3 NW 1015,8 11 0 0,0
22.04.2018 00:00:00 13,6 10,2 10,8 13,5 10,9 2 1 9 5 NNW 1015,6 11 0 0,0
21.04.2018 23:00:00 14,4 10,8 12,7 13,4 11,0 8 4 20 11 SE 1016,1 13 0 0,0
21.04.2018 22:00:00 14,9 11,5 14,6 13,3 10,9 15 8 22 12 NE 1016,6 15 0 0,0
21.04.2018 21:00:00 16,4 12,2 15,8 13,3 10,9 12 7 23 13 NE 1017,0 20 0 0,0
21.04.2018 20:00:00 20,5 13,7 18,9 13,2 10,9 13 7 29 16 NE 1016,5 22 34 0,0
21.04.2018 19:00:00 23,3 13,7 21,7 13,2 10,9 11 6 16 9 NE 1017,0 32 60 0,0
21.04.2018 18:00:00 24,3 13,2 23,8 13,1 10,9 12 7 21 11 NE 1017,6 33 60 0,0
21.04.2018 17:00:00 24,7 13,3 26,3 13,1 10,9 14 8 28 15 NE 1018,0 20 60 0,0
21.04.2018 16:00:00 25,2 11,0 30,2 13,0 10,9 9 5 32 18 ENE 1018,8 19 60 0,0
21.04.2018 15:00:00 24,7 13,3 31,1 13,0 10,8 11 6 21 11 NNE 1019,4 19 60 0,0
21.04.2018 14:00:00 24,1 12,4 30,1 13,0 10,8 11 6 17 9 E 1019,9 19 60 0,0
21.04.2018 13:00:00 23,3 12,9 28,3 13,0 10,8 11 6 20 11 E 1020,5 14 60 0,0
21.04.2018 12:00:00 22,2 13,5 25,7 13,0 10,8 9 5 18 10 E 1021,2 10 60 0,0
21.04.2018 11:00:00 20,4 14,7 21,5 13,1 10,8 2 1 6 4 S 1021,7 3,3 60 0,0
21.04.2018 10:00:00 18,4 13,9 16,4 13,1 10,8 0 0 8 4 N 1021,8 4,8 60 0,0
21.04.2018 09:00:00 14,1 12,3 11,5 13,1 10,8 0 0 4 2 N 1022,2 4,7 60 0,0
21.04.2018 08:00:00 10,2 9,7 7,5 13,2 10,8 4 2 8 4 NW 1022,4 6 30 0,0
21.04.2018 07:00:00 8,6 7,8 7,7 13,2 10,7 4 2 8 5 NW 1022,2 5 0 0,2
21.04.2018 06:00:00 8,8 7,9 8,7 13,2 10,8 7 4 9 5 NW 1022,0 6 0 0,0
21.04.2018 05:00:00 9,1 8,0 8,6 13,2 10,7 8 4 9 5 NW 1022,3 7 0 0,0
21.04.2018 04:00:00 9,9 8,7 8,8 13,2 10,7 5 3 9 5 W 1022,4 9 0 0,0
21.04.2018 03:00:00 11,0 9,4 9,1 13,1 10,7 5 3 9 5 NNW 1022,7 9 0 0,0
21.04.2018 02:00:00 11,6 9,8 10,0 13,1 10,7 6 4 9 5 WNW 1022,7 12 0 0,0

tt = Température de l'air
td = dewpoint
tt 5cm = Température de l'air 5cm
tt -20cm = Température de l'air -20cm
tt -100cm = Température de l'air -100cm
ff = Vitesse du vent
fx = gusts
dd = Direction du vent
ppp = reduced air pressure
vv = visibility
sd = Ensoleillement
rr = Quantités de précipitations

stations d'obs. à proximité